Regional Weather Roundup
Issued by NWS Jackson, KY

Home | Current Version | Previous Version | Graphics & Text | Print | Product List | Glossary On
Versions: 1 2 3 4 5 6 7 8 9 10 11 12 13 14 15 16 17 18 19 20 21 22 23 24 25 26 27 28 29 30 31 32 33 34 35 36 37 38 39 40 41 42 43 44 45 46 47 48 49 50
000
ASUS43 KJKL 280211
RWRJKL

EAST KENTUCKY HOURLY WEATHER ROUNDUP
NATIONAL WEATHER SERVICE JACKSON KY
900 PM EST TUE JAN 27 2015

NOTE: "FAIR" INDICATES FEW OR NO CLOUDS BELOW 12,000 FEET WITH
NO SIGNIFICANT WEATHER AND/OR OBSTRUCTIONS TO VISIBILITY.

* THESE REPORTS ARE NOT UNDER NWS QUALITY CONTROL AND MAY NOT
  REPORT WEATHER SUCH AS PRECIPITATION AND FOG.

KYZ079-080-083-085-087-088-110-112-115-119-120-280300
...EASTERN KENTUCKY...

CITY           SKY/WX    TMP DP  RH WIND       PRES   REMARKS
JACKSON        CLEAR     24  12  60 VRB3      30.14R
LONDON         CLOUDY    30  19  63 N5        30.15R WCI  25
SOMERSET*      CLEAR     28  23  80 NW3       30.20R
MONTICELLO*    CLOUDY    31  26  81 N6        30.21R WCI  25
MIDDLESBORO*   PTCLDY    29  22  74 NW6       30.15R WCI  23
HARLAN APT*    CLEAR     28  18  64 W3        30.12R
HAZARD APT*    CLEAR     27  14  59 N5        30.15R WCI  21
BLACK MTN*       N/A     14  12  92 NE2         N/A
PIKEVILLE APT* CLEAR     23  14  68 N7        30.12R WCI  15
BIG SANDY*     CLEAR     23  15  70 N3        30.15R
MOREHEAD APT*  PTCLDY    23  12  63 NE7       30.20R WCI  15
$$

KYZ035-036-041-042-044-050-067-078-099-280300
...CENTRAL KENTUCKY...

CITY           SKY/WX    TMP DP  RH WIND       PRES   REMARKS
MT STERLING*     N/A     23  16  74 NE3       30.20R
FLEMING/MASON* CLEAR     20  14  76 NE7       30.22R WCI  11
DANVILLE*      CLEAR     27  18  69 CALM      30.19R
RICHMOND*      CLEAR     27  16  63 N5        30.18R WCI  21
LEXINGTON      CLEAR     24  12  60 N6        30.20R WCI  17
FRANKFORT      CLEAR     24  13  62 N3        30.20R
$$

KYZ091>093-OHZ055-061-077-WVZ005-015-034-035-042-280300
...SOUTHERN OHIO/WEST VIRGINIA...

CITY           SKY/WX    TMP DP  RH WIND       PRES   REMARKS
COVINGTON      CLEAR     21  13  71 N9        30.22R WCI  11
COLUMBUS       PTCLDY    16  10  77 NW6       30.20R WCI   7
DAYTON         PTCLDY    12   8  84 W3        30.22R
WILMINGTON     CLEAR     16   9  74 N6        30.20R WCI   7
HUNTINGTON     CLOUDY    21  14  74 N7        30.18R WCI  12
CHARLESTON     FLURRIES  23  16  74 VRB6      30.15R WCI  16
PINEVILLE*     CLOUDY    25  17  72 MISG      30.12R
BECKLEY        LGT SNOW  18  11  74 N9        30.00R WCI   7
BLUEFIELD      MOCLDY    19   9  65 NW10      29.98R WCI   7
$$

VAZ002-007-008-TNZ017-027-036-066-071-280300
...SOUTHWEST VIRGINIA/EAST TENNESSEE...

CITY           SKY/WX    TMP DP  RH WIND       PRES   REMARKS
WISE*          CLEAR     25  10  54 NW8       30.03R WCI  16
JONESVILLE*    PTCLDY    28  19  69 NW7       30.14R WCI  21
ABINGDON*      CLEAR     29  18  63 W6        30.03R WCI  22
BRISTOL        CLEAR     28  19  69 W7        30.08R WCI  21
KNOXVILLE      CLOUDY    33  26  75 N10       30.14R WCI  25
OAK RIDGE      CLOUDY    34  28  79 N8        30.17R WCI  27
CROSSVILLE     CLOUDY    31  25  78 NW8       30.12R WCI  23
NASHVILLE      CLOUDY    36  30  79 N8        30.21S WCI  30
$$

...KEY TO REMARKS...
VSB - VISIBILITY IN MILES
WCI - WIND CHILL INDEX
HX  - HEAT INDEX

$$



USA.gov is the U.S. government's official web portal to all federal, state and local government web resources and services.